Stayed home this morning, while the kids got themselves ready for the bus. They slept in a bit, so it was a liitle more rushed than it has been. Raining. Kids got outside and fed their rabbits, and waited for the bus. I left before the bus got there, but saw the bus coming to the corner when I got to the corner on River St., to head uptown to the Post Office. Got the mail, and got my tax return!
Got to work at 9:15am
At lunch, went upto the bank, and got the return cashed. Put some in my account, took some out, and got a bank draft to finish paying off the Baer's for the roof last summer.
Lunch was a small box of fries from Four Sisters, and 6 wings I cooked in the toaster oven out of a box of wings from the grocery store. They were Snieder's selects. Tasted yummy.

ObservationsUpdated: Thursday April 18 2013,12:20 EDT
Sky Temp
(°C) Dew Point Feels Like Wind (km/h) Relative Humidity (%) Pressure (kPa) Visibility (km) Ceiling (ft)
Thursday
12:00 22 16 27 30 S 69 100.46
Thursday
11:00 20 15 24 31 S 73 100.56
Thursday
10:00 17 12 16 24 S 72 100.72
Thursday
9:00 13 10 11 22 S 82 100.81
Thursday
8:00 12 9 10 22 S 82 100.89
Thursday
7:00 9 6 5 31 SE 81 100.89
Thursday
6:00 9 5 5 28 SE 76 101.02
Thursday
5:00 8 5 5 22 SE 81 101.12
Thursday
4:00 8 5 4 24 SE 81 101.27
Thursday
3:00 8 5 4 30 SE 81 101.33
Thursday
2:00 8 5 4 33 SE 81 101.52
Thursday
1:00 7 5 2 35 SE 87 101.63
Thursday
0:00 7 4 3 30 SE 81 101.84
Wednesday
23:00 7 5 4 19 E 87 102.00
Wednesday
22:00 5 4 4 6 N 93 102.22
Wednesday
21:00 4 3 0 20 N 93 102.35
Wednesday
20:00 4 2 1 15 N 87 102.25
Wednesday
19:00 4 2 1 11 NE 87 102.14
Wednesday
18:00 5 1 2 13 N 75 102.34
Wednesday
17:00 6 1 3 17 NE 70 102.39
Wednesday
16:00 6 1 2 19 N 70 102.50
Wednesday
15:00 7 0 4 17 N 61 102.60
Wednesday
14:00 7 0 4 15 N 61 102.72
Wednesday
13:00 6 1 2 19 N 70 102.75
Wednesday
12:00 6 3 2 20 NE 81 102.74


Severe Thunderstorm watch
Issued at 12:11 PM EDT Thursday 18 April 2013
Summary
Risk of severe thunderstorms this afternoon. Scattered thunderstorms from Northern Indiana and lower Michigan are expected to track into western portions of Southern Ontario during the mid to late afternoon hours. These storms could contain large hail and damaging winds. This is an alert to the potential development of severe thunderstorms with large hail, damaging winds or heavy rainfall..Monitor weather conditions and listen for updated bulletins.